This is the latest recevied weather packets stored in our database for station/object SV2RCS-13. If no packets are shown the sender has not sent any weather packets the latest 10 day(s).
| Time | Temp. | Humidity | Pressure | Rain* | Wind** | Luminosity | Snow |
|---|---|---|---|---|---|---|---|
| 1777227414 | 18.89° C | 30% | 1012.8 hPa | - | - | - | - |
| 1777226814 | 18.89° C | 30% | 1012.5 hPa | - | - | - | - |
| 1777226215 | 18.89° C | 31% | 1012.3 hPa | - | - | - | - |
| 1777225614 | 18.89° C | 30% | 1012.2 hPa | - | - | - | - |
| 1777225015 | 19.44° C | 29% | 1011.7 hPa | - | - | - | - |
| 1777224415 | 20° C | 25% | 1011.6 hPa | - | - | - | - |
| 1777223815 | 20° C | 25% | 1011.4 hPa | - | - | - | - |
| 1777223215 | 20° C | 24% | 1011.2 hPa | - | - | - | - |
| 1777222615 | 20° C | 24% | 1011.1 hPa | - | - | - | - |
| 1777222014 | 20.56° C | 22% | 1011 hPa | - | - | - | - |
| 1777221415 | 20.56° C | 22% | 1010.9 hPa | - | - | - | - |
| 1777220815 | 20.56° C | 22% | 1011 hPa | - | - | - | - |
| 1777220215 | 20.56° C | 21% | 1010.9 hPa | - | - | - | - |
| 1777219614 | 20.56° C | 20% | 1010.9 hPa | - | - | - | - |
| 1777219014 | 21.11° C | 20% | 1010.9 hPa | - | - | - | - |
| 1777218417 | 21.11° C | 21% | 1010.9 hPa | - | - | - | - |
| 1777217814 | 21.11° C | 20% | 1010.5 hPa | - | - | - | - |
| 1777217214 | 21.11° C | 21% | 1010.8 hPa | - | - | - | - |
| 1777216615 | 21.11° C | 22% | 1010.8 hPa | - | - | - | - |
| 1777216015 | 21.11° C | 23% | 1010.8 hPa | - | - | - | - |
| 1777215415 | 21.11° C | 24% | 1010.6 hPa | - | - | - | - |
| 1777214815 | 21.11° C | 24% | 1010.6 hPa | - | - | - | - |
| 1777214215 | 21.11° C | 25% | 1010.6 hPa | - | - | - | - |
| 1777213615 | 21.11° C | 27% | 1010.7 hPa | - | - | - | - |
| 1777213015 | 21.11° C | 28% | 1010.6 hPa | - | - | - | - |
* Rain since midnight (hover to see other rain measurements)
** Current wind speed in m/s (hover to see current wind gust speed)